Location: Unspecified
(49.9820°N, 20.4363°E)
Time: 14:00:37
(UTC+02:00)

ISS - Pass Details

Date: 23 May 2018
Orbit: 402 x 407 km, 51.6° (Epoch: 20 May)

Event Time Altitude Azimuth Distance (km) Brightness Sun altitude
Rises 23:44:49 0° 274° (W) 2,319 0.2 -18.4°
Reaches altitude 10° 23:46:55 10° 278° (W) 1,459 -0.8 -18.5°
Maximum altitude 23:50:10 62° 360° (N) 458 -3.4 -18.6°
Drops below altitude 10° 23:53:25 10° 82° (E) 1,458 -1.0 -18.7°
Enters shadow 23:55:28 - 86° (E) 2,304 0.0 -18.8°
